Time,TemperatureF,DewpointF,PressureIn,WindDirection,WindDirectionDegrees,WindSpeedMPH,WindSpeedGustMPH,Humidity,HourlyPrecipIn,Conditions,Clouds,dailyrainin,SoftwareType,DateUTC
2013-01-27 00:03:00,15.0,-1.0,-100.00,NNW,340,6.0,13.0,48,-99.99,,,-99.99,,2013-01-27 05:03:00,
2013-01-27 00:12:00,15.0,-1.0,-100.00,NNW,330,7.0,12.0,48,-99.99,,,-99.99,,2013-01-27 05:12:00,
2013-01-27 00:22:00,15.0,-1.0,-100.00,NNW,330,7.0,12.0,48,-99.99,,,-99.99,,2013-01-27 05:22:00,
2013-01-27 00:32:00,15.0,-1.0,-100.00,NW,320,6.0,12.0,49,-99.99,,,-99.99,,2013-01-27 05:32:00,
2013-01-27 00:42:00,15.0,-1.0,-100.00,North,5,7.0,15.0,49,-99.99,,,-99.99,,2013-01-27 05:42:00,
2013-01-27 00:52:00,15.0,-1.0,-100.00,North,350,6.0,14.0,50,-99.99,,,-99.99,,2013-01-27 05:52:00,
2013-01-27 01:02:00,15.0,-1.0,-100.00,WNW,300,3.0,14.0,50,-99.99,,,-99.99,,2013-01-27 06:02:00,
2013-01-27 01:32:00,15.0,0.0,-100.00,NW,310,3.0,17.0,51,-99.99,,,-99.99,,2013-01-27 06:32:00,
2013-01-27 01:42:00,15.0,0.0,-100.00,NNW,330,9.0,17.0,51,-99.99,,,-99.99,,2013-01-27 06:42:00,
2013-01-27 01:52:00,15.0,0.0,-100.00,NNW,330,9.0,17.0,51,-99.99,,,-99.99,,2013-01-27 06:52:00,
2013-01-27 02:01:00,14.0,0.0,-100.00,NW,305,5.0,17.0,52,-99.99,,,-99.99,,2013-01-27 07:01:00,
2013-01-27 02:21:00,14.0,0.0,-100.00,NW,305,7.0,13.0,53,-99.99,,,-99.99,,2013-01-27 07:21:00,
2013-01-27 02:32:00,14.0,0.0,-100.00,North,10,3.0,10.0,53,-99.99,,,-99.99,,2013-01-27 07:32:00,
2013-01-27 02:42:00,14.0,0.0,-100.00,WNW,290,5.0,14.0,54,-99.99,,,-99.99,,2013-01-27 07:42:00,
2013-01-27 02:52:00,14.0,1.0,-100.00,NNW,345,5.0,14.0,54,-99.99,,,-99.99,,2013-01-27 07:52:00,
2013-01-27 03:02:00,14.0,1.0,-100.00,WNW,300,6.0,14.0,54,-99.99,,,-99.99,,2013-01-27 08:02:00,
2013-01-27 03:12:00,14.0,1.0,-100.00,WNW,300,6.0,14.0,54,-99.99,,,-99.99,,2013-01-27 08:12:00,
2013-01-27 03:22:00,14.0,1.0,-100.00,NW,320,6.0,14.0,54,-99.99,,,-99.99,,2013-01-27 08:22:00,
2013-01-27 03:32:00,14.0,1.0,-100.00,NNW,330,5.0,14.0,54,-99.99,,,-99.99,,2013-01-27 08:32:00,
2013-01-27 03:42:00,15.0,1.0,-100.00,NW,325,9.0,14.0,53,-99.99,,,-99.99,,2013-01-27 08:42:00,
2013-01-27 03:52:00,15.0,1.0,-100.00,NW,325,9.0,14.0,53,-99.99,,,-99.99,,2013-01-27 08:52:00,
2013-01-27 04:00:00,14.0,1.0,-100.00,NW,310,3.0,12.0,55,-99.99,,,-99.99,,2013-01-27 09:00:00,
2013-01-27 04:03:00,14.0,1.0,-100.00,NNW,330,5.0,16.0,54,-99.99,,,-99.99,,2013-01-27 09:03:00,
2013-01-27 04:11:00,15.0,1.0,-100.00,NW,325,6.0,17.0,54,-99.99,,,-99.99,,2013-01-27 09:11:00,
2013-01-27 04:22:00,14.0,1.0,-100.00,North,355,3.0,15.0,54,-99.99,,,-99.99,,2013-01-27 09:22:00,
2013-01-27 04:30:00,14.0,1.0,-100.00,North,350,3.0,7.0,56,-99.99,,,-99.99,,2013-01-27 09:30:00,
2013-01-27 04:32:00,14.0,1.0,-100.00,NNW,330,5.0,14.0,55,-99.99,,,-99.99,,2013-01-27 09:32:00,
2013-01-27 04:42:00,14.0,1.0,-100.00,NW,310,3.0,12.0,55,-99.99,,,-99.99,,2013-01-27 09:42:00,
2013-01-27 04:51:00,14.0,1.0,-100.00,NW,310,3.0,12.0,55,-99.99,,,-99.99,,2013-01-27 09:51:00,
2013-01-27 05:11:00,14.0,1.0,-100.00,North,350,3.0,7.0,56,-99.99,,,-99.99,,2013-01-27 10:11:00,
2013-01-27 05:21:00,14.0,1.0,-100.00,North,350,3.0,7.0,56,-99.99,,,-99.99,,2013-01-27 10:21:00,
2013-01-27 05:42:00,14.0,1.0,-100.00,West,275,7.0,15.0,56,-99.99,,,-99.99,,2013-01-27 10:42:00,
2013-01-27 05:52:00,14.0,1.0,-100.00,West,280,5.0,14.0,57,-99.99,,,-99.99,,2013-01-27 10:52:00,
2013-01-27 06:01:00,13.0,1.0,-100.00,WNW,285,3.0,10.0,57,-99.99,,,-99.99,,2013-01-27 11:01:00,
2013-01-27 06:11:00,13.0,1.0,-100.00,NW,305,3.0,8.0,58,-99.99,,,-99.99,,2013-01-27 11:11:00,
2013-01-27 06:22:00,13.0,1.0,-100.00,WNW,290,5.0,10.0,58,-99.99,,,-99.99,,2013-01-27 11:22:00,
2013-01-27 06:32:00,13.0,1.0,-100.00,NNW,340,5.0,9.0,59,-99.99,,,-99.99,,2013-01-27 11:32:00,
2013-01-27 06:42:00,13.0,1.0,-100.00,WNW,285,5.0,9.0,59,-99.99,,,-99.99,,2013-01-27 11:42:00,
2013-01-27 06:52:00,12.0,1.0,-100.00,WNW,285,5.0,7.0,60,-99.99,,,-99.99,,2013-01-27 11:52:00,
2013-01-27 07:02:00,13.0,1.0,-100.00,West,275,3.0,9.0,60,-99.99,,,-99.99,,2013-01-27 12:02:00,
2013-01-27 07:12:00,12.0,1.0,-100.00,West,270,2.0,8.0,61,-99.99,,,-99.99,,2013-01-27 12:12:00,
2013-01-27 07:22:00,12.0,2.0,-100.00,NW,315,5.0,10.0,61,-99.99,,,-99.99,,2013-01-27 12:22:00,
2013-01-27 07:32:00,13.0,2.0,-100.00,WNW,285,3.0,7.0,61,-99.99,,,-99.99,,2013-01-27 12:32:00,
2013-01-27 07:42:00,12.0,2.0,-100.00,NE,45,2.0,7.0,61,-99.99,,,-99.99,,2013-01-27 12:42:00,
2013-01-27 07:52:00,12.0,2.0,-100.00,West,265,1.0,7.0,61,-99.99,,,-99.99,,2013-01-27 12:52:00,
2013-01-27 08:02:00,12.0,2.0,-100.00,West,275,5.0,7.0,62,-99.99,,,-99.99,,2013-01-27 13:02:00,
2013-01-27 08:32:00,14.0,2.0,-100.00,WNW,290,6.0,13.0,58,-99.99,,,-99.99,,2013-01-27 13:32:00,
2013-01-27 09:02:00,14.0,2.0,-100.00,NW,305,7.0,12.0,57,-99.99,,,-99.99,,2013-01-27 14:02:00,